Tracking 18844 objects as of 21-Nov-2017
HD Live streaming from Space Station
objects crossing your sky now

FENGYUN 1C DEB

Track FENGYUN 1C DEB now!
10-day predictions


NORAD ID: 31709
Int'l Code: 1999-025CDG
Perigee: 753.5 km
Apogee: 1,027.8 km
Inclination: 98.0 °
Period: 102.6 minutes
Semi major axis: 7261 km
RCS: 0.0141 m2 (small)
Launch date: May 10, 1999
Source: People's Republic of China (PRC)
Launch site: Taiyaun Space Center, China (TSC)

Note: This is SATELLITE DEBRIS
aabbcc
Your satellite tracking list
Your tracking list is empty




NASA's NSSDC Master Catalog

Two Line Element Set (TLE):
1 31709U 99025CDG 17324.49330272  .00001493  00000-0  84085-3 0  9997
2 31709  98.0380 208.0823 0188876 111.5928 250.5482 14.02985167524200
Source of the keplerian elements: AFSPC